Location: Newark
(15.4608°S, 41.1635°W)
Time: 09:06:37
(UTC+00:00)

Vanguard 3 - Pass Details

Date: 04 August 2021
Orbit: 510 x 3260 km, 33.3° (Epoch: 22 September)

Event Time Altitude Azimuth Distance (km) Brightness Sun altitude
Rises 07:15:43 0° 279° (W) 5,495 - -26.7°
Reaches altitude 10° 07:20:29 10° 270° (W) 3,987 - -25.6°
Exits shadow 07:28:35 32° 215° (SW) 1,859 8.6 -23.7°
Maximum altitude 07:28:52 32° 210° (SSW) 1,830 8.6 -23.6°
Drops below altitude 10° 07:34:05 10° 146° (SSE) 2,443 9.8 -22.4°
Sets 07:36:20 0° 135° (SE) 3,145 10.6 -21.9°
